カタログに戻る

THOR ABLESTAR DEB

運用中LEO
NORAD 323·DEBRIS·🇺🇸 United States

打ち上げ Jun 29, 1961 から Cape Canaveral Space Force Station

Loading…

次のパス (今後24時間)

TLE

最新Source: Space-Track

元期: Sep 5, 2026, 10:03 UTC

1 00323U 61015CZ  26248.41937761  .00000479  00000-0  27429-3 0  9998
2 00323  66.8361 255.4018 0072462  23.3034 337.1315 14.16509510339832

AllMySatでTHOR ABLESTAR DEBをリアルタイム追跡

Download on the App Store